TimeCDT,TemperatureF,Dew PointF,Humidity,Sea Level PressureIn,VisibilityMPH,Wind Direction,Wind SpeedMPH,Gust SpeedMPH,PrecipitationIn,Events,Conditions,WindDirDegrees,DateUTC
12:53 AM,71.1,62.1,73,29.98,10.0,ESE,11.5,-,N/A,,Partly Cloudy,120,2013-08-18 05:53:00
1:53 AM,70.0,62.1,76,29.98,10.0,SE,9.2,-,N/A,,Partly Cloudy,130,2013-08-18 06:53:00
2:53 AM,69.1,62.1,78,29.96,10.0,SE,9.2,-,N/A,,Scattered Clouds,140,2013-08-18 07:53:00
3:53 AM,68.0,62.1,81,29.97,10.0,SE,9.2,-,N/A,,Scattered Clouds,140,2013-08-18 08:53:00
4:53 AM,66.9,62.1,84,29.96,10.0,SSE,8.1,-,N/A,,Scattered Clouds,160,2013-08-18 09:53:00
5:53 AM,66.9,61.0,81,29.96,10.0,SSE,9.2,-,N/A,,Scattered Clouds,150,2013-08-18 10:53:00
6:53 AM,66.9,59.0,76,29.96,10.0,South,8.1,-,N/A,,Scattered Clouds,170,2013-08-18 11:53:00
7:53 AM,66.0,60.1,81,29.98,10.0,SSE,6.9,-,N/A,,Scattered Clouds,150,2013-08-18 12:53:00
8:53 AM,70.0,59.0,68,29.99,10.0,SSE,11.5,-,N/A,,Partly Cloudy,160,2013-08-18 13:53:00
9:53 AM,73.9,59.0,59,29.99,10.0,South,13.8,-,N/A,,Partly Cloudy,170,2013-08-18 14:53:00
10:53 AM,77.0,57.9,52,29.99,10.0,South,16.1,21.9,N/A,,Partly Cloudy,180,2013-08-18 15:53:00
11:53 AM,80.1,57.9,47,29.99,10.0,South,15.0,-,N/A,,Clear,180,2013-08-18 16:53:00
12:53 PM,82.0,59.0,45,29.99,10.0,South,11.5,19.6,N/A,,Clear,170,2013-08-18 17:53:00
1:53 PM,84.9,59.0,41,29.96,10.0,SSE,10.4,-,N/A,,Clear,150,2013-08-18 18:53:00
2:53 PM,86.0,61.0,43,29.95,10.0,SSE,10.4,-,N/A,,Clear,150,2013-08-18 19:53:00
3:53 PM,89.1,62.1,40,29.92,10.0,SSE,13.8,-,N/A,,Clear,160,2013-08-18 20:53:00
4:53 PM,89.1,61.0,39,29.90,10.0,SSE,18.4,-,N/A,,Partly Cloudy,160,2013-08-18 21:53:00
5:53 PM,90.0,60.1,37,29.89,10.0,South,15.0,-,N/A,,Partly Cloudy,170,2013-08-18 22:53:00
6:53 PM,88.0,61.0,40,29.89,10.0,SE,12.7,-,N/A,,Partly Cloudy,140,2013-08-18 23:53:00
7:53 PM,84.0,62.1,47,29.90,10.0,SE,12.7,-,N/A,,Partly Cloudy,130,2013-08-19 00:53:00
8:53 PM,81.0,59.0,47,29.90,10.0,SE,13.8,-,N/A,,Partly Cloudy,130,2013-08-19 01:53:00
9:53 PM,80.1,59.0,48,29.92,10.0,SE,11.5,-,N/A,,Clear,140,2013-08-19 02:53:00
10:53 PM,75.9,60.1,58,29.95,10.0,SE,9.2,-,N/A,,Clear,130,2013-08-19 03:53:00
11:53 PM,75.0,59.0,57,29.96,10.0,SSE,11.5,-,N/A,,Clear,160,2013-08-19 04:53:00